• Em Portugal
  • Lista de países
  • Para 7 dias
  • Temperatura da água
  • Mapas de satélite
  • Mapa do tempo
  • Widgets de tempo
  • user-avatar
    Iniciar Sessão

    Previsão horária em Chosciszowice

    Hoje, 16 Julho, Segunda-feira

    Tempo Temperatura Precipitação Vento Pressão Humidade
    00:00 +18°C° 0 mm 1 m/s 744 mmHg 75%
    01:00 +16°C° 0 mm 1 m/s 744 mmHg 77%
    02:00 +16°C° 0 mm 1 m/s 744 mmHg 79%
    03:00 +15°C° 0 mm 1 m/s 744 mmHg 82%
    04:00 +15°C° 0 mm 1 m/s 744 mmHg 84%
    05:00 +18°C° 0 mm 1 m/s 744 mmHg 79%
    06:00 +20°C° 0 mm 1 m/s 744 mmHg 74%
    07:00 +22°C° 0 mm 1 m/s 744 mmHg 68%
    08:00 +23°C° 0 mm 1 m/s 744 mmHg 61%
    09:00 +25°C° 0 mm 2 m/s 744 mmHg 55%
    10:00 +26°C° 0 mm 2 m/s 743 mmHg 49%
    11:00 +27°C° 0 mm 2 m/s 743 mmHg 46%
    12:00 +28°C° 0 mm 2 m/s 743 mmHg 43%
    13:00 +29°C° 0 mm 2 m/s 742 mmHg 40%
    14:00 +29°C° 0 mm 2 m/s 742 mmHg 40%
    15:00 +28°C° 0 mm 2 m/s 742 mmHg 41%
    16:00 +28°C° 0 mm 2 m/s 741 mmHg 41%
    17:00 +27°C° 0 mm 2 m/s 741 mmHg 46%
    18:00 +26°C° 0 mm 2 m/s 741 mmHg 52%
    19:00 +25°C° 0 mm 1 m/s 741 mmHg 57%
    20:00 +23°C° 0,2 mm 2 m/s 741 mmHg 62%
    21:00 +21°C° 0,2 mm 2 m/s 741 mmHg 68%
    22:00 +19°C° 0,2 mm 2 m/s 741 mmHg 74%
    23:00 +19°C° 0,3 mm 2 m/s 741 mmHg 79%

    Amanhã, 17 Julho, Terça-feira

    Tempo Temperatura Precipitação Vento Pressão Humidade
    00:00 +19°C° 0,3 mm 1 m/s 741 mmHg 84%
    01:00 +18°C° 0,3 mm 1 m/s 741 mmHg 88%
    02:00 +18°C° 0 mm 1 m/s 741 mmHg 90%
    03:00 +17°C° 0 mm 2 m/s 741 mmHg 91%
    04:00 +17°C° 0 mm 2 m/s 740 mmHg 93%
    05:00 +17°C° 0,1 mm 3 m/s 740 mmHg 90%
    06:00 +18°C° 0,1 mm 3 m/s 740 mmHg 87%
    07:00 +19°C° 0,1 mm 4 m/s 740 mmHg 84%
    08:00 +20°C° 0,3 mm 4 m/s 741 mmHg 82%
    09:00 +20°C° 0,3 mm 4 m/s 741 mmHg 80%
    10:00 +21°C° 0,3 mm 5 m/s 741 mmHg 78%
    11:00 +20°C° 0,7 mm 5 m/s 741 mmHg 79%
    12:00 +20°C° 0,7 mm 5 m/s 740 mmHg 81%
    13:00 +20°C° 0,7 mm 5 m/s 740 mmHg 82%
    14:00 +19°C° 0,4 mm 5 m/s 740 mmHg 83%
    15:00 +19°C° 0,4 mm 5 m/s 740 mmHg 83%
    16:00 +19°C° 0,4 mm 5 m/s 740 mmHg 84%
    17:00 +19°C° 0,1 mm 5 m/s 740 mmHg 85%
    18:00 +18°C° 0,1 mm 4 m/s 740 mmHg 87%
    19:00 +18°C° 0,1 mm 4 m/s 740 mmHg 89%
    20:00 +17°C° 0 mm 4 m/s 740 mmHg 90%
    21:00 +17°C° 0 mm 3 m/s 741 mmHg 92%
    22:00 +16°C° 0 mm 3 m/s 741 mmHg 94%
    23:00 +15°C° 0 mm 4 m/s 740 mmHg 94%

    Depois de amanhã, 18 Julho, Quarta-feira

    Tempo Temperatura Precipitação Vento Pressão Humidade
    00:00 +15°C° 0 mm 4 m/s 740 mmHg 94%
    01:00 +17°C° 0 mm 4 m/s 740 mmHg 94%
    02:00 +17°C° 0 mm 4 m/s 740 mmHg 93%
    03:00 +17°C° 0 mm 4 m/s 740 mmHg 93%
    04:00 +16°C° 0 mm 5 m/s 740 mmHg 92%
    05:00 +16°C° 0 mm 5 m/s 741 mmHg 89%
    06:00 +17°C° 0 mm 5 m/s 741 mmHg 86%
    07:00 +19°C° 0 mm 6 m/s 741 mmHg 82%
    08:00 +20°C° 0 mm 6 m/s 741 mmHg 75%
    09:00 +22°C° 0 mm 6 m/s 741 mmHg 67%
    10:00 +23°C° 0 mm 6 m/s 741 mmHg 60%
    11:00 +24°C° 0,1 mm 6 m/s 741 mmHg 57%
    12:00 +26°C° 0,1 mm 6 m/s 741 mmHg 54%
    13:00 +26°C° 0,1 mm 6 m/s 741 mmHg 51%
    14:00 +26°C° 0,1 mm 6 m/s 742 mmHg 52%
    15:00 +26°C° 0,1 mm 6 m/s 742 mmHg 53%
    16:00 +26°C° 0,1 mm 5 m/s 742 mmHg 54%
    17:00 +25°C° 0 mm 5 m/s 742 mmHg 59%
    18:00 +23°C° 0 mm 4 m/s 742 mmHg 64%
    19:00 +22°C° 0 mm 3 m/s 742 mmHg 69%
    20:00 +21°C° 0,1 mm 3 m/s 742 mmHg 73%
    21:00 +20°C° 0,1 mm 3 m/s 743 mmHg 77%
    22:00 +19°C° 0,1 mm 2 m/s 743 mmHg 82%
    23:00 +19°C° 0 mm 2 m/s 743 mmHg 85%

    19 Julho, Quinta-feira

    Tempo Temperatura Precipitação Vento Pressão Humidade
    00:00 +18°C° 0 mm 2 m/s 743 mmHg 87%
    01:00 +17°C° 0 mm 2 m/s 743 mmHg 90%
    02:00 +17°C° 0 mm 3 m/s 743 mmHg 91%
    03:00 +17°C° 0 mm 3 m/s 743 mmHg 91%
    04:00 +16°C° 0 mm 3 m/s 743 mmHg 92%
    05:00 +17°C° 0,1 mm 3 m/s 743 mmHg 89%
    06:00 +18°C° 0,1 mm 4 m/s 743 mmHg 85%
    07:00 +19°C° 0,1 mm 4 m/s 743 mmHg 82%
    08:00 +20°C° 0,1 mm 5 m/s 743 mmHg 76%
    09:00 +21°C° 0,1 mm 5 m/s 744 mmHg 70%
    10:00 +22°C° 0,1 mm 5 m/s 744 mmHg 65%
    11:00 +23°C° 0,1 mm 5 m/s 744 mmHg 61%
    12:00 +25°C° 0,1 mm 5 m/s 744 mmHg 57%
    13:00 +26°C° 0,1 mm 5 m/s 743 mmHg 53%
    14:00 +26°C° 0,1 mm 5 m/s 743 mmHg 54%
    15:00 +26°C° 0,1 mm 4 m/s 743 mmHg 54%
    16:00 +26°C° 0,1 mm 4 m/s 743 mmHg 55%
    17:00 +25°C° 0 mm 4 m/s 743 mmHg 60%
    18:00 +24°C° 0 mm 3 m/s 743 mmHg 65%
    19:00 +23°C° 0 mm 2 m/s 743 mmHg 70%
    20:00 +21°C° 0 mm 2 m/s 744 mmHg 73%
    21:00 +19°C° 0 mm 2 m/s 744 mmHg 77%
    22:00 +18°C° 0 mm 2 m/s 744 mmHg 81%
    23:00 +18°C° 0 mm 1 m/s 744 mmHg 82%

    20 Julho, Sexta-feira

    Tempo Temperatura Precipitação Vento Pressão Humidade
    00:00 +16°C° 0 mm 1 m/s 744 mmHg 82%
    01:00 +16°C° 0 mm 1 m/s 744 mmHg 83%
    02:00 +15°C° 0 mm 1 m/s 744 mmHg 84%
    03:00 +15°C° 0 mm 1 m/s 744 mmHg 85%
    04:00 +14°C° 0 mm 2 m/s 744 mmHg 86%
    05:00 +16°C° 0 mm 2 m/s 744 mmHg 79%
    06:00 +17°C° 0 mm 2 m/s 744 mmHg 73%
    07:00 +19°C° 0 mm 2 m/s 744 mmHg 67%
    08:00 +20°C° 0 mm 2 m/s 744 mmHg 58%
    09:00 +23°C° 0 mm 2 m/s 744 mmHg 50%
    10:00 +25°C° 0 mm 3 m/s 744 mmHg 42%
    11:00 +26°C° 0 mm 2 m/s 743 mmHg 39%
    12:00 +27°C° 0 mm 2 m/s 743 mmHg 36%
    13:00 +27°C° 0 mm 2 m/s 743 mmHg 34%
    14:00 +28°C° 0 mm 2 m/s 743 mmHg 33%
    15:00 +28°C° 0 mm 2 m/s 742 mmHg 33%
    16:00 +28°C° 0 mm 2 m/s 742 mmHg 33%
    17:00 +27°C° 0 mm 2 m/s 742 mmHg 39%
    18:00 +25°C° 0 mm 1 m/s 742 mmHg 45%
    19:00 +24°C° 0 mm 1 m/s 741 mmHg 51%
    20:00 +22°C° 0 mm 1 m/s 742 mmHg 55%
    21:00 +21°C° 0 mm 1 m/s 742 mmHg 59%
    22:00 +19°C° 0 mm 1 m/s 742 mmHg 63%
    23:00 +18°C° 0 mm 1 m/s 742 mmHg 66%

    21 Julho, Sábado

    Tempo Temperatura Precipitação Vento Pressão Humidade
    00:00 +18°C° 0 mm 1 m/s 742 mmHg 69%
    01:00 +16°C° 0 mm 1 m/s 742 mmHg 72%
    02:00 +16°C° 0 mm 1 m/s 742 mmHg 73%
    03:00 +16°C° 0 mm 1 m/s 741 mmHg 75%
    04:00 +15°C° 0 mm 1 m/s 741 mmHg 76%
    05:00 +18°C° 0 mm 1 m/s 741 mmHg 71%
    06:00 +20°C° 0 mm 1 m/s 741 mmHg 66%
    07:00 +22°C° 0 mm 1 m/s 742 mmHg 60%
    08:00 +23°C° 0 mm 1 m/s 742 mmHg 55%
    09:00 +25°C° 0 mm 1 m/s 742 mmHg 49%
    10:00 +27°C° 0 mm 1 m/s 741 mmHg 43%
    11:00 +27°C° 0 mm 1 m/s 741 mmHg 42%
    12:00 +28°C° 0 mm 1 m/s 741 mmHg 41%
    13:00 +28°C° 0 mm 1 m/s 741 mmHg 40%
    14:00 +28°C° 0 mm 1 m/s 740 mmHg 41%
    15:00 +27°C° 0 mm 2 m/s 740 mmHg 42%
    16:00 +27°C° 0 mm 2 m/s 740 mmHg 43%
    17:00 +26°C° 0 mm 2 m/s 740 mmHg 48%
    18:00 +25°C° 0 mm 1 m/s 740 mmHg 52%
    19:00 +24°C° 0 mm 1 m/s 740 mmHg 57%
    20:00 +23°C° 0 mm 1 m/s 740 mmHg 61%
    21:00 +21°C° 0 mm 1 m/s 740 mmHg 66%
    22:00 +20°C° 0 mm 1 m/s 740 mmHg 70%
    23:00 +19°C° 0 mm 1 m/s 740 mmHg 73%
    Mostrar mais